Time,TemperatureF,DewpointF,PressureIn,WindDirection,WindDirectionDegrees,WindSpeedMPH,WindSpeedGustMPH,Humidity,HourlyPrecipIn,Conditions,Clouds,dailyrainin,SoftwareType,DateUTC
2013-07-05 00:00:00,79.7,75.5,30.25,SW,231,6.0,13.0,87,0.00,,,0.00,Wunderground v.1.15,2013-07-05 04:00:00,
2013-07-05 00:05:00,79.7,75.5,30.26,SW,217,7.0,13.0,87,0.00,,,0.00,Wunderground v.1.15,2013-07-05 04:05:00,
2013-07-05 00:10:00,79.6,75.4,30.26,SSW,212,7.0,12.0,87,0.00,,,0.00,Wunderground v.1.15,2013-07-05 04:10:00,
2013-07-05 00:15:00,79.6,75.4,30.25,SSW,211,7.0,12.0,87,0.00,,,0.00,Wunderground v.1.15,2013-07-05 04:15:00,
2013-07-05 00:20:00,79.6,75.4,30.25,West,278,8.0,8.0,87,0.00,,,0.00,Wunderground v.1.15,2013-07-05 04:20:00,
2013-07-05 00:25:00,79.6,75.4,30.25,SSW,203,8.0,12.0,87,0.00,,,0.00,Wunderground v.1.15,2013-07-05 04:25:00,
2013-07-05 00:30:00,79.6,75.4,30.25,South,191,7.0,7.0,87,0.00,,,0.00,Wunderground v.1.15,2013-07-05 04:30:00,
2013-07-05 00:35:00,79.5,75.3,30.25,SW,224,6.0,12.0,87,0.00,,,0.00,Wunderground v.1.15,2013-07-05 04:35:00,
2013-07-05 00:40:00,79.5,75.3,30.25,North,349,5.0,5.0,87,0.00,,,0.00,Wunderground v.1.15,2013-07-05 04:40:00,
2013-07-05 00:45:00,79.5,75.3,30.25,WSW,243,5.0,8.0,87,0.00,,,0.00,Wunderground v.1.15,2013-07-05 04:45:00,
2013-07-05 00:50:00,79.5,75.6,30.25,West,279,5.0,5.0,88,0.00,,,0.00,Wunderground v.1.15,2013-07-05 04:50:00,
2013-07-05 00:55:00,79.5,75.6,30.25,WSW,255,6.0,7.0,88,0.00,,,0.00,Wunderground v.1.15,2013-07-05 04:55:00,
2013-07-05 01:00:00,79.5,75.6,30.25,WSW,255,6.0,12.0,88,0.00,,,0.00,Wunderground v.1.15,2013-07-05 05:00:00,
2013-07-05 01:05:00,79.5,75.6,30.25,SW,232,6.0,12.0,88,0.00,,,0.00,Wunderground v.1.15,2013-07-05 05:05:00,
2013-07-05 01:10:00,79.4,75.5,30.25,South,172,6.0,6.0,88,0.00,,,0.00,Wunderground v.1.15,2013-07-05 05:10:00,
2013-07-05 01:15:00,79.4,75.5,30.24,South,187,7.0,7.0,88,0.00,,,0.00,Wunderground v.1.15,2013-07-05 05:15:00,
2013-07-05 01:20:00,79.4,75.5,30.24,SE,138,6.0,6.0,88,0.00,,,0.00,Wunderground v.1.15,2013-07-05 05:20:00,
2013-07-05 01:25:00,79.4,75.5,30.24,SSW,210,6.0,12.0,88,0.00,,,0.00,Wunderground v.1.15,2013-07-05 05:25:00,
2013-07-05 01:30:00,79.4,75.5,30.24,SSW,203,6.0,6.0,88,0.00,,,0.00,Wunderground v.1.15,2013-07-05 05:30:00,
2013-07-05 01:40:00,79.3,75.4,30.24,South,190,6.0,6.0,88,0.00,,,0.00,Wunderground v.1.15,2013-07-05 05:40:00,
2013-07-05 01:45:00,79.4,75.5,30.25,South,187,6.0,12.0,88,0.00,,,0.00,Wunderground v.1.15,2013-07-05 05:45:00,
2013-07-05 01:50:00,79.4,75.5,30.25,SW,215,6.0,12.0,88,0.00,,,0.00,Wunderground v.1.15,2013-07-05 05:50:00,
2013-07-05 01:55:00,79.4,75.5,30.24,SSW,197,6.0,12.0,88,0.00,,,0.00,Wunderground v.1.15,2013-07-05 05:55:00,
2013-07-05 02:00:00,79.3,75.4,30.24,SW,214,6.0,11.0,88,0.00,,,0.00,Wunderground v.1.15,2013-07-05 06:00:00,
2013-07-05 02:10:00,79.3,75.4,30.24,West,259,7.0,7.0,88,0.00,,,0.00,Wunderground v.1.15,2013-07-05 06:10:00,
2013-07-05 02:15:00,79.4,75.5,30.24,SW,229,6.0,11.0,88,0.00,,,0.00,Wunderground v.1.15,2013-07-05 06:15:00,
2013-07-05 02:20:00,79.3,75.4,30.24,SW,229,6.0,11.0,88,0.00,,,0.00,Wunderground v.1.15,2013-07-05 06:20:00,
2013-07-05 02:25:00,79.4,75.5,30.24,SSW,197,6.0,11.0,88,0.00,,,0.00,Wunderground v.1.15,2013-07-05 06:25:00,
2013-07-05 02:30:00,79.3,75.4,30.24,South,191,6.0,11.0,88,0.00,,,0.00,Wunderground v.1.15,2013-07-05 06:30:00,
2013-07-05 02:35:00,79.2,75.3,30.23,WSW,256,6.0,11.0,88,0.00,,,0.00,Wunderground v.1.15,2013-07-05 06:35:00,
2013-07-05 02:40:00,79.3,75.4,30.23,SSW,205,7.0,7.0,88,0.00,,,0.00,Wunderground v.1.15,2013-07-05 06:40:00,
2013-07-05 02:45:00,79.2,75.3,30.23,SSW,207,7.0,11.0,88,0.00,,,0.00,Wunderground v.1.15,2013-07-05 06:45:00,
2013-07-05 02:50:00,79.2,75.3,30.23,SSW,194,6.0,11.0,88,0.00,,,0.00,Wunderground v.1.15,2013-07-05 06:50:00,
2013-07-05 02:55:00,79.2,75.3,30.23,South,186,6.0,11.0,88,0.00,,,0.00,Wunderground v.1.15,2013-07-05 06:55:00,
2013-07-05 03:00:00,79.2,75.3,30.23,SW,217,7.0,13.0,88,0.00,,,0.00,Wunderground v.1.15,2013-07-05 07:00:00,
2013-07-05 03:05:00,79.2,75.3,30.23,SSW,203,7.0,13.0,88,0.00,,,0.00,Wunderground v.1.15,2013-07-05 07:05:00,
2013-07-05 03:10:00,79.3,75.4,30.22,ESE,112,7.0,7.0,88,0.00,,,0.00,Wunderground v.1.15,2013-07-05 07:10:00,
2013-07-05 03:15:00,79.2,75.3,30.22,SSW,201,7.0,8.0,88,0.00,,,0.00,Wunderground v.1.15,2013-07-05 07:15:00,
2013-07-05 03:20:00,79.2,75.3,30.22,SSW,203,8.0,8.0,88,0.00,,,0.00,Wunderground v.1.15,2013-07-05 07:20:00,
2013-07-05 03:25:00,79.2,75.3,30.22,South,190,8.0,13.0,88,0.00,,,0.00,Wunderground v.1.15,2013-07-05 07:25:00,
2013-07-05 03:35:00,79.2,75.3,30.22,SSW,200,7.0,13.0,88,0.00,,,0.00,Wunderground v.1.15,2013-07-05 07:35:00,
2013-07-05 03:40:00,79.1,75.2,30.22,South,185,7.0,7.0,88,0.00,,,0.00,Wunderground v.1.15,2013-07-05 07:40:00,
2013-07-05 03:45:00,79.2,75.3,30.22,SSE,163,7.0,13.0,88,0.00,,,0.00,Wunderground v.1.15,2013-07-05 07:45:00,
2013-07-05 03:50:00,79.1,75.2,30.22,South,190,7.0,13.0,88,0.00,,,0.00,Wunderground v.1.15,2013-07-05 07:50:00,
2013-07-05 03:55:00,79.1,75.2,30.22,SSW,193,7.0,13.0,88,0.00,,,0.00,Wunderground v.1.15,2013-07-05 07:55:00,
2013-07-05 04:00:00,79.1,75.2,30.22,SSW,212,8.0,12.0,88,0.00,,,0.00,Wunderground v.1.15,2013-07-05 08:00:00,
2013-07-05 04:10:00,79.1,75.2,30.22,South,172,8.0,8.0,88,0.00,,,0.00,Wunderground v.1.15,2013-07-05 08:10:00,
2013-07-05 04:15:00,79.1,75.2,30.22,SSW,193,7.0,12.0,88,0.00,,,0.00,Wunderground v.1.15,2013-07-05 08:15:00,
2013-07-05 04:20:00,79.0,75.1,30.22,South,191,7.0,7.0,88,0.00,,,0.00,Wunderground v.1.15,2013-07-05 08:20:00,
2013-07-05 04:25:00,79.0,75.1,30.22,South,191,7.0,9.0,88,0.00,,,0.00,Wunderground v.1.15,2013-07-05 08:25:00,
2013-07-05 04:30:00,79.0,75.1,30.22,SSW,197,8.0,12.0,88,0.00,,,0.00,Wunderground v.1.15,2013-07-05 08:30:00,
2013-07-05 04:35:00,79.0,75.1,30.22,SSW,207,8.0,12.0,88,0.00,,,0.00,Wunderground v.1.15,2013-07-05 08:35:00,
2013-07-05 04:40:00,79.1,75.2,30.22,SSW,203,8.0,12.0,88,0.00,,,0.00,Wunderground v.1.15,2013-07-05 08:40:00,
2013-07-05 04:45:00,79.1,74.9,30.22,SSW,205,8.0,12.0,87,0.00,,,0.00,Wunderground v.1.15,2013-07-05 08:45:00,
2013-07-05 04:50:00,79.1,74.9,30.22,SSW,197,8.0,12.0,87,0.00,,,0.00,Wunderground v.1.15,2013-07-05 08:50:00,
2013-07-05 04:55:00,79.1,74.9,30.22,SW,219,9.0,12.0,87,0.00,,,0.00,Wunderground v.1.15,2013-07-05 08:55:00,
2013-07-05 05:00:00,79.2,75.0,30.22,SSW,204,9.0,12.0,87,0.00,,,0.00,Wunderground v.1.15,2013-07-05 09:00:00,
2013-07-05 05:05:00,79.2,75.0,30.22,SSE,158,9.0,12.0,87,0.00,,,0.00,Wunderground v.1.15,2013-07-05 09:05:00,
2013-07-05 05:10:00,79.3,75.4,30.22,SW,234,9.0,9.0,88,0.00,,,0.00,Wunderground v.1.15,2013-07-05 09:10:00,
2013-07-05 05:15:00,79.2,75.0,30.22,SW,219,8.0,10.0,87,0.00,,,0.00,Wunderground v.1.15,2013-07-05 09:15:00,
2013-07-05 05:20:00,79.3,75.4,30.22,SSW,200,9.0,9.0,88,0.00,,,0.00,Wunderground v.1.15,2013-07-05 09:20:00,
2013-07-05 05:25:00,79.2,75.3,30.23,ESE,122,8.0,12.0,88,0.00,,,0.00,Wunderground v.1.15,2013-07-05 09:25:00,
2013-07-05 05:30:00,79.2,75.3,30.22,SSE,164,7.0,12.0,88,0.00,,,0.00,Wunderground v.1.15,2013-07-05 09:30:00,
2013-07-05 05:35:00,79.2,75.3,30.22,South,179,7.0,12.0,88,0.00,,,0.00,Wunderground v.1.15,2013-07-05 09:35:00,
2013-07-05 05:40:00,79.1,75.2,30.22,SSE,165,7.0,12.0,88,0.00,,,0.00,Wunderground v.1.15,2013-07-05 09:40:00,
2013-07-05 05:45:00,79.1,75.2,30.23,South,186,6.0,12.0,88,0.00,,,0.00,Wunderground v.1.15,2013-07-05 09:45:00,
2013-07-05 05:50:00,79.0,75.1,30.23,South,172,5.0,12.0,88,0.00,,,0.00,Wunderground v.1.15,2013-07-05 09:50:00,
2013-07-05 06:00:00,79.0,75.1,30.23,WSW,239,5.0,14.0,88,0.00,,,0.00,Wunderground v.1.15,2013-07-05 10:00:00,
2013-07-05 06:10:00,79.0,75.1,30.23,South,188,6.0,6.0,88,0.00,,,0.00,Wunderground v.1.15,2013-07-05 10:10:00,
2013-07-05 06:15:00,79.0,75.1,30.23,South,187,5.0,14.0,88,0.00,,,0.00,Wunderground v.1.15,2013-07-05 10:15:00,
2013-07-05 06:20:00,79.0,75.1,30.24,SSW,200,6.0,14.0,88,0.00,,,0.00,Wunderground v.1.15,2013-07-05 10:20:00,
2013-07-05 06:25:00,79.1,75.2,30.23,SSW,212,6.0,14.0,88,0.00,,,0.00,Wunderground v.1.15,2013-07-05 10:25:00,
2013-07-05 06:30:00,79.1,75.2,30.23,SSW,198,6.0,14.0,88,0.00,,,0.00,Wunderground v.1.15,2013-07-05 10:30:00,
2013-07-05 06:35:00,79.3,75.4,30.24,SSW,207,7.0,14.0,88,0.00,,,0.00,Wunderground v.1.15,2013-07-05 10:35:00,
2013-07-05 06:40:00,79.4,75.5,30.24,South,177,7.0,14.0,88,0.00,,,0.00,Wunderground v.1.15,2013-07-05 10:40:00,
2013-07-05 06:45:00,79.6,75.4,30.24,SSW,207,8.0,14.0,87,0.00,,,0.00,Wunderground v.1.15,2013-07-05 10:45:00,
2013-07-05 06:55:00,79.8,75.6,30.24,SSW,197,8.0,9.0,87,0.00,,,0.00,Wunderground v.1.15,2013-07-05 10:55:00,
2013-07-05 07:00:00,79.9,75.3,30.24,SW,214,8.0,10.0,86,0.00,,,0.00,Wunderground v.1.15,2013-07-05 11:00:00,
2013-07-05 07:10:00,80.3,75.7,30.24,WSW,239,7.0,7.0,86,0.00,,,0.00,Wunderground v.1.15,2013-07-05 11:10:00,
2013-07-05 07:15:00,80.5,75.9,30.24,WSW,248,7.0,10.0,86,0.00,,,0.00,Wunderground v.1.15,2013-07-05 11:15:00,
2013-07-05 07:20:00,80.5,75.9,30.24,South,189,7.0,10.0,86,0.00,,,0.00,Wunderground v.1.15,2013-07-05 11:20:00,
2013-07-05 07:25:00,80.6,76.0,30.25,SSW,207,7.0,10.0,86,0.00,,,0.00,Wunderground v.1.15,2013-07-05 11:25:00,
2013-07-05 07:30:00,80.7,76.1,30.25,WSW,248,7.0,10.0,86,0.00,,,0.00,Wunderground v.1.15,2013-07-05 11:30:00,
2013-07-05 07:35:00,80.8,75.9,30.25,SSE,167,7.0,10.0,85,0.00,,,0.00,Wunderground v.1.15,2013-07-05 11:35:00,
2013-07-05 07:40:00,80.9,76.0,30.25,SSW,197,7.0,10.0,85,0.00,,,0.00,Wunderground v.1.15,2013-07-05 11:40:00,
2013-07-05 07:45:00,81.0,76.1,30.25,SSE,167,7.0,10.0,85,0.00,,,0.00,Wunderground v.1.15,2013-07-05 11:45:00,
2013-07-05 07:50:00,81.0,76.1,30.25,SSW,204,7.0,10.0,85,0.00,,,0.00,Wunderground v.1.15,2013-07-05 11:50:00,
2013-07-05 08:05:00,81.1,76.2,30.25,SSW,198,7.0,10.0,85,0.00,,,0.00,Wunderground v.1.15,2013-07-05 12:05:00,
2013-07-05 08:10:00,81.2,76.3,30.25,SSW,204,7.0,7.0,85,0.00,,,0.00,Wunderground v.1.15,2013-07-05 12:10:00,
2013-07-05 08:15:00,81.2,76.3,30.25,SSW,207,7.0,10.0,85,0.00,,,0.00,Wunderground v.1.15,2013-07-05 12:15:00,
2013-07-05 08:20:00,81.2,76.3,30.25,South,187,7.0,7.0,85,0.00,,,0.00,Wunderground v.1.15,2013-07-05 12:20:00,
2013-07-05 08:25:00,81.3,76.4,30.25,South,169,7.0,10.0,85,0.00,,,0.00,Wunderground v.1.15,2013-07-05 12:25:00,
2013-07-05 08:30:00,81.3,76.4,30.26,SSW,197,7.0,7.0,85,0.00,,,0.00,Wunderground v.1.15,2013-07-05 12:30:00,
2013-07-05 08:35:00,81.4,76.5,30.26,SSW,205,7.0,8.0,85,0.00,,,0.00,Wunderground v.1.15,2013-07-05 12:35:00,
2013-07-05 08:40:00,81.4,76.5,30.26,SSW,207,7.0,10.0,85,0.00,,,0.00,Wunderground v.1.15,2013-07-05 12:40:00,
2013-07-05 08:45:00,81.4,76.5,30.26,SSW,193,8.0,10.0,85,0.00,,,0.00,Wunderground v.1.15,2013-07-05 12:45:00,
2013-07-05 08:50:00,81.4,76.5,30.26,South,184,8.0,8.0,85,0.00,,,0.00,Wunderground v.1.15,2013-07-05 12:50:00,
2013-07-05 08:55:00,81.5,76.6,30.26,SSW,197,7.0,10.0,85,0.00,,,0.00,Wunderground v.1.15,2013-07-05 12:55:00,
2013-07-05 09:00:00,81.5,76.6,30.26,South,191,7.0,12.0,85,0.00,,,0.00,Wunderground v.1.15,2013-07-05 13:00:00,
2013-07-05 09:05:00,81.7,76.4,30.26,SSW,212,7.0,12.0,84,0.00,,,0.00,Wunderground v.1.15,2013-07-05 13:05:00,
2013-07-05 09:10:00,81.8,76.5,30.26,South,177,7.0,7.0,84,0.00,,,0.00,Wunderground v.1.15,2013-07-05 13:10:00,
2013-07-05 09:15:00,81.7,76.4,30.26,SSW,208,7.0,12.0,84,0.00,,,0.00,Wunderground v.1.15,2013-07-05 13:15:00,
2013-07-05 09:20:00,81.8,76.5,30.26,SSW,195,7.0,7.0,84,0.00,,,0.00,Wunderground v.1.15,2013-07-05 13:20:00,
2013-07-05 09:25:00,81.9,76.6,30.26,SSE,158,7.0,8.0,84,0.00,,,0.00,Wunderground v.1.15,2013-07-05 13:25:00,
2013-07-05 09:30:00,82.0,76.7,30.26,South,179,6.0,12.0,84,0.00,,,0.00,Wunderground v.1.15,2013-07-05 13:30:00,
2013-07-05 09:35:00,82.1,76.4,30.26,SSW,198,7.0,12.0,83,0.00,,,0.00,Wunderground v.1.15,2013-07-05 13:35:00,
2013-07-05 09:40:00,82.0,76.7,30.26,South,169,7.0,12.0,84,0.00,,,0.00,Wunderground v.1.15,2013-07-05 13:40:00,
2013-07-05 09:45:00,81.9,76.2,30.26,SSW,198,8.0,12.0,83,0.00,,,0.00,Wunderground v.1.15,2013-07-05 13:45:00,
2013-07-05 09:55:00,82.6,76.5,30.27,South,183,6.0,12.0,82,0.00,,,0.00,Wunderground v.1.15,2013-07-05 13:55:00,
2013-07-05 10:00:00,82.6,76.5,30.27,South,173,6.0,6.0,82,0.00,,,0.00,Wunderground v.1.15,2013-07-05 14:00:00,
2013-07-05 10:05:00,82.5,76.4,30.27,South,187,7.0,7.0,82,0.00,,,0.00,Wunderground v.1.15,2013-07-05 14:05:00,
2013-07-05 10:10:00,82.4,76.7,30.27,SSE,165,8.0,11.0,83,0.00,,,0.00,Wunderground v.1.15,2013-07-05 14:10:00,
2013-07-05 10:15:00,82.5,76.8,30.27,SSW,198,7.0,11.0,83,0.00,,,0.00,Wunderground v.1.15,2013-07-05 14:15:00,
2013-07-05 10:30:00,82.5,76.8,30.27,SSE,155,7.0,11.0,83,0.00,,,0.00,Wunderground v.1.15,2013-07-05 14:30:00,
2013-07-05 10:35:00,82.5,76.4,30.27,SSW,195,8.0,11.0,82,0.00,,,0.00,Wunderground v.1.15,2013-07-05 14:35:00,
2013-07-05 10:40:00,82.8,76.7,30.27,SSE,156,7.0,11.0,82,0.00,,,0.00,Wunderground v.1.15,2013-07-05 14:40:00,
2013-07-05 10:45:00,83.0,76.9,30.27,SSW,195,7.0,11.0,82,0.00,,,0.00,Wunderground v.1.15,2013-07-05 14:45:00,
2013-07-05 10:50:00,83.2,77.1,30.28,South,186,6.0,11.0,82,0.00,,,0.00,Wunderground v.1.15,2013-07-05 14:50:00,
2013-07-05 10:55:00,83.2,77.1,30.27,South,183,6.0,11.0,82,0.00,,,0.00,Wunderground v.1.15,2013-07-05 14:55:00,
2013-07-05 11:00:00,83.5,77.1,30.27,SSE,156,6.0,6.0,81,0.00,,,0.00,Wunderground v.1.15,2013-07-05 15:00:00,
2013-07-05 11:05:00,83.6,77.1,30.27,SSE,164,6.0,8.0,81,0.00,,,0.00,Wunderground v.1.15,2013-07-05 15:05:00,
2013-07-05 11:10:00,83.8,77.3,30.27,SSW,192,6.0,12.0,81,0.00,,,0.00,Wunderground v.1.15,2013-07-05 15:10:00,
2013-07-05 11:15:00,84.0,77.5,30.27,SW,231,5.0,12.0,81,0.00,,,0.00,Wunderground v.1.15,2013-07-05 15:15:00,
2013-07-05 11:20:00,84.1,77.6,30.27,SSW,198,5.0,12.0,81,0.00,,,0.00,Wunderground v.1.15,2013-07-05 15:20:00,
2013-07-05 11:25:00,84.1,77.3,30.27,SSW,197,6.0,12.0,80,0.00,,,0.00,Wunderground v.1.15,2013-07-05 15:25:00,
2013-07-05 11:40:00,84.0,77.2,30.27,SSW,195,6.0,12.0,80,0.00,,,0.00,Wunderground v.1.15,2013-07-05 15:40:00,
2013-07-05 11:50:00,84.4,77.6,30.28,SSW,195,5.0,12.0,80,0.00,,,0.00,Wunderground v.1.15,2013-07-05 15:50:00,
2013-07-05 11:55:00,84.3,77.5,30.27,SSW,194,6.0,12.0,80,0.00,,,0.00,Wunderground v.1.15,2013-07-05 15:55:00,
2013-07-05 12:00:00,84.5,77.6,30.28,South,184,6.0,10.0,80,0.00,,,0.00,Wunderground v.1.15,2013-07-05 16:00:00,
2013-07-05 12:05:00,84.5,77.3,30.27,SSE,156,6.0,10.0,79,0.00,,,0.00,Wunderground v.1.15,2013-07-05 16:05:00,
2013-07-05 12:10:00,84.5,77.6,30.28,South,174,6.0,6.0,80,0.00,,,0.00,Wunderground v.1.15,2013-07-05 16:10:00,
2013-07-05 12:15:00,84.3,77.5,30.28,South,172,7.0,7.0,80,0.00,,,0.00,Wunderground v.1.15,2013-07-05 16:15:00,
2013-07-05 12:20:00,84.4,77.6,30.28,South,191,6.0,10.0,80,0.00,,,0.00,Wunderground v.1.15,2013-07-05 16:20:00,
2013-07-05 12:25:00,84.5,77.6,30.28,South,181,6.0,10.0,80,0.00,,,0.00,Wunderground v.1.15,2013-07-05 16:25:00,
2013-07-05 12:30:00,84.6,77.4,30.28,SSE,160,6.0,10.0,79,0.00,,,0.00,Wunderground v.1.15,2013-07-05 16:30:00,
2013-07-05 12:35:00,84.7,77.8,30.28,SSW,194,6.0,10.0,80,0.00,,,0.00,Wunderground v.1.15,2013-07-05 16:35:00,
2013-07-05 12:40:00,84.7,77.5,30.27,SW,234,6.0,10.0,79,0.00,,,0.00,Wunderground v.1.15,2013-07-05 16:40:00,
2013-07-05 12:45:00,84.7,77.5,30.27,SSE,167,6.0,10.0,79,0.00,,,0.00,Wunderground v.1.15,2013-07-05 16:45:00,
2013-07-05 12:50:00,84.5,77.6,30.27,SSE,153,7.0,10.0,80,0.00,,,0.00,Wunderground v.1.15,2013-07-05 16:50:00,
2013-07-05 12:55:00,84.4,77.6,30.27,South,177,7.0,10.0,80,0.00,,,0.00,Wunderground v.1.15,2013-07-05 16:55:00,
2013-07-05 13:00:00,84.3,77.8,30.27,South,175,7.0,10.0,81,0.00,,,0.00,Wunderground v.1.15,2013-07-05 17:00:00,
2013-07-05 13:05:00,84.2,77.4,30.27,SSE,155,7.0,10.0,80,0.00,,,0.00,Wunderground v.1.15,2013-07-05 17:05:00,
2013-07-05 13:10:00,84.0,77.5,30.27,South,176,8.0,11.0,81,0.00,,,0.00,Wunderground v.1.15,2013-07-05 17:10:00,
2013-07-05 13:15:00,84.0,77.5,30.27,South,177,8.0,11.0,81,0.00,,,0.00,Wunderground v.1.15,2013-07-05 17:15:00,
2013-07-05 13:20:00,83.9,77.4,30.26,SSE,152,8.0,10.0,81,0.00,,,0.00,Wunderground v.1.15,2013-07-05 17:20:00,
2013-07-05 13:30:00,83.8,77.3,30.26,South,172,9.0,11.0,81,0.00,,,0.00,Wunderground v.1.15,2013-07-05 17:30:00,
2013-07-05 13:35:00,83.8,77.7,30.26,SSE,149,9.0,12.0,82,0.00,,,0.00,Wunderground v.1.15,2013-07-05 17:35:00,
2013-07-05 13:40:00,83.5,77.1,30.26,SSW,199,10.0,11.0,81,0.00,,,0.00,Wunderground v.1.15,2013-07-05 17:40:00,
2013-07-05 13:45:00,83.4,77.0,30.26,SSW,193,11.0,11.0,81,0.00,,,0.00,Wunderground v.1.15,2013-07-05 17:45:00,
2013-07-05 13:50:00,83.4,77.0,30.26,South,172,10.0,11.0,81,0.00,,,0.00,Wunderground v.1.15,2013-07-05 17:50:00,
2013-07-05 13:55:00,83.5,77.1,30.26,WSW,245,10.0,11.0,81,0.00,,,0.00,Wunderground v.1.15,2013-07-05 17:55:00,
2013-07-05 14:00:00,83.4,77.0,30.25,South,191,10.0,14.0,81,0.00,,,0.00,Wunderground v.1.15,2013-07-05 18:00:00,
2013-07-05 14:05:00,83.2,77.1,30.26,South,188,11.0,14.0,82,0.00,,,0.00,Wunderground v.1.15,2013-07-05 18:05:00,
2013-07-05 14:10:00,83.2,76.8,30.25,South,172,11.0,11.0,81,0.00,,,0.00,Wunderground v.1.15,2013-07-05 18:10:00,
2013-07-05 14:15:00,83.2,77.1,30.25,SSW,205,11.0,14.0,82,0.00,,,0.00,Wunderground v.1.15,2013-07-05 18:15:00,
2013-07-05 14:20:00,83.2,76.8,30.25,South,184,11.0,14.0,81,0.00,,,0.00,Wunderground v.1.15,2013-07-05 18:20:00,
2013-07-05 14:25:00,83.2,76.8,30.25,SSW,204,11.0,14.0,81,0.00,,,0.00,Wunderground v.1.15,2013-07-05 18:25:00,
2013-07-05 14:30:00,83.3,77.2,30.25,South,177,11.0,11.0,82,0.00,,,0.00,Wunderground v.1.15,2013-07-05 18:30:00,
2013-07-05 14:40:00,83.6,77.1,30.25,SW,225,10.0,14.0,81,0.00,,,0.00,Wunderground v.1.15,2013-07-05 18:40:00,
2013-07-05 14:45:00,83.7,76.9,30.25,SSW,205,10.0,14.0,80,0.00,,,0.00,Wunderground v.1.15,2013-07-05 18:45:00,
2013-07-05 14:50:00,83.6,76.8,30.25,SSW,205,11.0,11.0,80,0.00,,,0.00,Wunderground v.1.15,2013-07-05 18:50:00,
2013-07-05 14:55:00,84.0,77.2,30.25,SW,215,10.0,14.0,80,0.00,,,0.00,Wunderground v.1.15,2013-07-05 18:55:00,
2013-07-05 15:00:00,83.9,77.1,30.25,SSE,153,10.0,10.0,80,0.00,,,0.00,Wunderground v.1.15,2013-07-05 19:00:00,
2013-07-05 15:05:00,83.6,77.1,30.24,West,266,10.0,16.0,81,0.00,,,0.00,Wunderground v.1.15,2013-07-05 19:05:00,
2013-07-05 15:10:00,83.9,77.1,30.24,ESE,121,10.0,16.0,80,0.00,,,0.00,Wunderground v.1.15,2013-07-05 19:10:00,
2013-07-05 15:15:00,84.1,77.3,30.24,South,184,9.0,16.0,80,0.00,,,0.00,Wunderground v.1.15,2013-07-05 19:15:00,
2013-07-05 15:20:00,83.8,77.0,30.24,SSW,197,10.0,16.0,80,0.00,,,0.00,Wunderground v.1.15,2013-07-05 19:20:00,
2013-07-05 15:25:00,83.9,77.1,30.24,SSW,212,10.0,16.0,80,0.00,,,0.00,Wunderground v.1.15,2013-07-05 19:25:00,
2013-07-05 15:30:00,84.2,77.4,30.24,SSW,210,9.0,9.0,80,0.00,,,0.00,Wunderground v.1.15,2013-07-05 19:30:00,
2013-07-05 15:35:00,84.5,77.3,30.23,SW,222,9.0,16.0,79,0.00,,,0.00,Wunderground v.1.15,2013-07-05 19:35:00,
2013-07-05 15:40:00,84.6,77.4,30.23,SSW,199,8.0,16.0,79,0.00,,,0.00,Wunderground v.1.15,2013-07-05 19:40:00,
2013-07-05 15:45:00,84.2,77.0,30.23,SW,218,9.0,16.0,79,0.00,,,0.00,Wunderground v.1.15,2013-07-05 19:45:00,
2013-07-05 15:50:00,83.9,77.1,30.22,SSW,195,10.0,16.0,80,0.00,,,0.00,Wunderground v.1.15,2013-07-05 19:50:00,
2013-07-05 15:55:00,83.7,76.9,30.22,SSE,165,11.0,16.0,80,0.00,,,0.00,Wunderground v.1.15,2013-07-05 19:55:00,
2013-07-05 16:00:00,83.5,76.7,30.22,SSW,197,11.0,15.0,80,0.00,,,0.00,Wunderground v.1.15,2013-07-05 20:00:00,
2013-07-05 16:05:00,83.8,77.0,30.22,SW,214,10.0,15.0,80,0.00,,,0.00,Wunderground v.1.15,2013-07-05 20:05:00,
2013-07-05 16:10:00,83.5,76.7,30.22,SSE,160,10.0,10.0,80,0.00,,,0.00,Wunderground v.1.15,2013-07-05 20:10:00,
2013-07-05 16:15:00,83.7,76.9,30.22,SW,224,10.0,11.0,80,0.00,,,0.00,Wunderground v.1.15,2013-07-05 20:15:00,
2013-07-05 16:20:00,83.8,77.0,30.21,SSE,149,9.0,15.0,80,0.00,,,0.00,Wunderground v.1.15,2013-07-05 20:20:00,
2013-07-05 16:25:00,83.8,76.6,30.21,SSW,205,9.0,15.0,79,0.00,,,0.00,Wunderground v.1.15,2013-07-05 20:25:00,
2013-07-05 16:30:00,83.8,76.6,30.21,SSW,205,10.0,10.0,79,0.00,,,0.00,Wunderground v.1.15,2013-07-05 20:30:00,
2013-07-05 16:35:00,83.9,76.7,30.21,South,183,9.0,15.0,79,0.00,,,0.00,Wunderground v.1.15,2013-07-05 20:35:00,
2013-07-05 16:40:00,84.0,76.8,30.21,South,179,9.0,15.0,79,0.00,,,0.00,Wunderground v.1.15,2013-07-05 20:40:00,
2013-07-05 16:45:00,83.6,76.4,30.21,SSW,211,10.0,15.0,79,0.00,,,0.00,Wunderground v.1.15,2013-07-05 20:45:00,
2013-07-05 16:50:00,83.4,76.6,30.20,SW,215,10.0,10.0,80,0.00,,,0.00,Wunderground v.1.15,2013-07-05 20:50:00,
2013-07-05 16:55:00,83.5,76.7,30.20,SW,220,10.0,15.0,80,0.00,,,0.00,Wunderground v.1.15,2013-07-05 20:55:00,
2013-07-05 17:00:00,83.4,76.6,30.20,SE,131,10.0,10.0,80,0.00,,,0.00,Wunderground v.1.15,2013-07-05 21:00:00,
2013-07-05 17:10:00,83.3,76.5,30.20,SW,225,10.0,15.0,80,0.00,,,0.00,Wunderground v.1.15,2013-07-05 21:10:00,
2013-07-05 17:15:00,83.3,76.9,30.20,South,173,10.0,15.0,81,0.00,,,0.00,Wunderground v.1.15,2013-07-05 21:15:00,
2013-07-05 17:20:00,83.1,76.3,30.20,WSW,238,10.0,15.0,80,0.00,,,0.00,Wunderground v.1.15,2013-07-05 21:20:00,
2013-07-05 17:25:00,83.1,75.9,30.20,South,191,10.0,15.0,79,0.00,,,0.00,Wunderground v.1.15,2013-07-05 21:25:00,
2013-07-05 17:30:00,83.0,75.8,30.20,South,181,10.0,15.0,79,0.00,,,0.00,Wunderground v.1.15,2013-07-05 21:30:00,
2013-07-05 17:35:00,83.0,76.2,30.19,SSW,200,10.0,15.0,80,0.00,,,0.00,Wunderground v.1.15,2013-07-05 21:35:00,
2013-07-05 17:45:00,82.9,76.5,30.19,SSE,158,10.0,15.0,81,0.00,,,0.00,Wunderground v.1.15,2013-07-05 21:45:00,
2013-07-05 17:50:00,82.6,75.8,30.19,SW,229,11.0,15.0,80,0.00,,,0.00,Wunderground v.1.15,2013-07-05 21:50:00,
2013-07-05 17:55:00,82.7,75.9,30.19,SSW,197,10.0,15.0,80,0.00,,,0.00,Wunderground v.1.15,2013-07-05 21:55:00,
2013-07-05 18:00:00,82.7,75.9,30.20,South,188,10.0,10.0,80,0.00,,,0.00,Wunderground v.1.15,2013-07-05 22:00:00,
2013-07-05 18:05:00,82.7,75.9,30.20,SW,222,10.0,15.0,80,0.00,,,0.00,Wunderground v.1.15,2013-07-05 22:05:00,
2013-07-05 18:10:00,82.6,75.8,30.20,WSW,246,9.0,15.0,80,0.00,,,0.00,Wunderground v.1.15,2013-07-05 22:10:00,
2013-07-05 18:15:00,82.5,75.7,30.20,SW,222,10.0,15.0,80,0.00,,,0.00,Wunderground v.1.15,2013-07-05 22:15:00,
2013-07-05 18:20:00,82.7,75.9,30.20,SW,231,10.0,15.0,80,0.00,,,0.00,Wunderground v.1.15,2013-07-05 22:20:00,
2013-07-05 18:25:00,82.8,75.6,30.20,South,186,9.0,15.0,79,0.00,,,0.00,Wunderground v.1.15,2013-07-05 22:25:00,
2013-07-05 18:30:00,82.7,75.9,30.20,SSW,207,9.0,15.0,80,0.00,,,0.00,Wunderground v.1.15,2013-07-05 22:30:00,
2013-07-05 18:35:00,82.6,75.8,30.19,West,271,10.0,15.0,80,0.00,,,0.00,Wunderground v.1.15,2013-07-05 22:35:00,
2013-07-05 18:40:00,82.8,75.2,30.20,SSW,195,9.0,9.0,78,0.00,,,0.00,Wunderground v.1.15,2013-07-05 22:40:00,
2013-07-05 18:45:00,82.7,75.5,30.19,SSW,193,9.0,12.0,79,0.00,,,0.00,Wunderground v.1.15,2013-07-05 22:45:00,
2013-07-05 18:50:00,82.7,75.5,30.19,SW,214,10.0,15.0,79,0.00,,,0.00,Wunderground v.1.15,2013-07-05 22:50:00,
2013-07-05 18:55:00,82.7,75.5,30.19,SSW,203,10.0,15.0,79,0.00,,,0.00,Wunderground v.1.15,2013-07-05 22:55:00,
2013-07-05 19:00:00,82.5,75.3,30.19,SW,222,9.0,15.0,79,0.00,,,0.00,Wunderground v.1.15,2013-07-05 23:00:00,
2013-07-05 19:05:00,82.5,75.3,30.19,SSW,193,10.0,15.0,79,0.00,,,0.00,Wunderground v.1.15,2013-07-05 23:05:00,
2013-07-05 19:10:00,82.4,75.6,30.19,SSW,199,10.0,15.0,80,0.00,,,0.00,Wunderground v.1.15,2013-07-05 23:10:00,
2013-07-05 19:15:00,82.3,75.5,30.19,South,191,10.0,15.0,80,0.00,,,0.00,Wunderground v.1.15,2013-07-05 23:15:00,
2013-07-05 19:20:00,82.2,75.8,30.19,SSW,207,10.0,15.0,81,0.00,,,0.00,Wunderground v.1.15,2013-07-05 23:20:00,
2013-07-05 19:25:00,82.2,75.8,30.19,WSW,252,10.0,15.0,81,0.00,,,0.00,Wunderground v.1.15,2013-07-05 23:25:00,
2013-07-05 19:30:00,82.2,75.8,30.19,SSE,152,9.0,9.0,81,0.00,,,0.00,Wunderground v.1.15,2013-07-05 23:30:00,
2013-07-05 19:35:00,82.1,75.7,30.20,SSW,193,9.0,15.0,81,0.00,,,0.00,Wunderground v.1.15,2013-07-05 23:35:00,
2013-07-05 19:40:00,82.1,76.1,30.20,WNW,295,8.0,15.0,82,0.00,,,0.00,Wunderground v.1.15,2013-07-05 23:40:00,
2013-07-05 19:45:00,81.7,75.7,30.20,SSE,158,8.0,15.0,82,0.00,,,0.00,Wunderground v.1.15,2013-07-05 23:45:00,
2013-07-05 19:55:00,81.0,75.3,30.20,NE,44,8.0,15.0,83,0.00,,,0.00,Wunderground v.1.15,2013-07-05 23:55:00,
2013-07-05 20:00:00,81.0,75.3,30.20,SE,136,7.0,7.0,83,0.00,,,0.00,Wunderground v.1.15,2013-07-06 00:00:00,
2013-07-05 20:05:00,80.9,75.2,30.21,WSW,252,7.0,8.0,83,0.00,,,0.00,Wunderground v.1.15,2013-07-06 00:05:00,
2013-07-05 20:10:00,80.7,75.1,30.21,SW,222,7.0,15.0,83,0.00,,,0.00,Wunderground v.1.15,2013-07-06 00:10:00,
2013-07-05 20:15:00,80.6,75.3,30.21,SSE,160,7.0,15.0,84,0.00,,,0.00,Wunderground v.1.15,2013-07-06 00:15:00,
2013-07-05 20:20:00,80.5,75.2,30.21,SSW,211,7.0,15.0,84,0.00,,,0.00,Wunderground v.1.15,2013-07-06 00:20:00,
2013-07-05 20:25:00,80.5,75.2,30.21,WSW,243,8.0,15.0,84,0.00,,,0.00,Wunderground v.1.15,2013-07-06 00:25:00,
2013-07-05 20:30:00,80.4,75.1,30.21,West,262,8.0,15.0,84,0.00,,,0.00,Wunderground v.1.15,2013-07-06 00:30:00,
2013-07-05 20:35:00,80.4,75.5,30.21,ESE,108,7.0,15.0,85,0.00,,,0.00,Wunderground v.1.15,2013-07-06 00:35:00,
2013-07-05 20:40:00,80.4,75.5,30.21,SSW,212,6.0,6.0,85,0.00,,,0.00,Wunderground v.1.15,2013-07-06 00:40:00,
2013-07-05 20:45:00,80.3,75.0,30.20,NNW,332,6.0,7.0,84,0.00,,,0.00,Wunderground v.1.15,2013-07-06 00:45:00,
2013-07-05 20:50:00,80.3,75.0,30.21,SSE,160,6.0,15.0,84,0.00,,,0.00,Wunderground v.1.15,2013-07-06 00:50:00,
2013-07-05 21:00:00,80.4,74.8,30.21,SW,219,6.0,14.0,83,0.00,,,0.00,Wunderground v.1.15,2013-07-06 01:00:00,
2013-07-05 21:05:00,80.4,74.8,30.21,West,270,6.0,14.0,83,0.00,,,0.00,Wunderground v.1.15,2013-07-06 01:05:00,
2013-07-05 21:10:00,80.4,75.1,30.21,North,360,7.0,7.0,84,0.00,,,0.00,Wunderground v.1.15,2013-07-06 01:10:00,
2013-07-05 21:15:00,80.3,74.7,30.21,SSW,196,7.0,14.0,83,0.00,,,0.00,Wunderground v.1.15,2013-07-06 01:15:00,
2013-07-05 21:20:00,80.3,74.7,30.21,NE,48,6.0,6.0,83,0.00,,,0.00,Wunderground v.1.15,2013-07-06 01:20:00,
2013-07-05 21:25:00,80.3,75.0,30.21,North,4,5.0,14.0,84,0.00,,,0.00,Wunderground v.1.15,2013-07-06 01:25:00,
2013-07-05 21:30:00,80.2,74.6,30.21,SE,131,5.0,14.0,83,0.00,,,0.00,Wunderground v.1.15,2013-07-06 01:30:00,
2013-07-05 21:35:00,80.3,75.0,30.22,SSW,212,6.0,14.0,84,0.00,,,0.00,Wunderground v.1.15,2013-07-06 01:35:00,
2013-07-05 21:40:00,80.3,75.0,30.22,SW,214,6.0,6.0,84,0.00,,,0.00,Wunderground v.1.15,2013-07-06 01:40:00,
2013-07-05 21:45:00,80.2,74.9,30.22,West,275,7.0,7.0,84,0.00,,,0.00,Wunderground v.1.15,2013-07-06 01:45:00,
2013-07-05 21:50:00,80.2,74.9,30.22,WSW,253,6.0,6.0,84,0.00,,,0.00,Wunderground v.1.15,2013-07-06 01:50:00,
2013-07-05 21:55:00,80.2,74.9,30.23,ESE,110,5.0,14.0,84,0.00,,,0.00,Wunderground v.1.15,2013-07-06 01:55:00,
2013-07-05 22:00:00,80.3,75.0,30.23,WSW,239,5.0,5.0,84,0.00,,,0.00,Wunderground v.1.15,2013-07-06 02:00:00,
2013-07-05 22:05:00,80.3,75.0,30.23,SSW,205,4.0,6.0,84,0.00,,,0.00,Wunderground v.1.15,2013-07-06 02:05:00,
2013-07-05 22:10:00,80.2,74.9,30.23,SSW,197,5.0,5.0,84,0.00,,,0.00,Wunderground v.1.15,2013-07-06 02:10:00,
2013-07-05 22:15:00,80.2,74.9,30.23,SW,235,5.0,13.0,84,0.00,,,0.00,Wunderground v.1.15,2013-07-06 02:15:00,
2013-07-05 22:20:00,80.3,75.0,30.23,ENE,57,5.0,5.0,84,0.00,,,0.00,Wunderground v.1.15,2013-07-06 02:20:00,
2013-07-05 22:25:00,80.3,75.0,30.23,NNE,26,4.0,13.0,84,0.00,,,0.00,Wunderground v.1.15,2013-07-06 02:25:00,
2013-07-05 22:35:00,80.3,75.0,30.24,ESE,109,3.0,13.0,84,0.00,,,0.00,Wunderground v.1.15,2013-07-06 02:35:00,
2013-07-05 22:40:00,80.2,74.6,30.24,NE,40,3.0,3.0,83,0.00,,,0.00,Wunderground v.1.15,2013-07-06 02:40:00,
2013-07-05 22:45:00,80.2,74.9,30.24,SSE,166,3.0,5.0,84,0.00,,,0.00,Wunderground v.1.15,2013-07-06 02:45:00,
2013-07-05 22:50:00,80.1,74.5,30.24,WNW,294,3.0,13.0,83,0.00,,,0.00,Wunderground v.1.15,2013-07-06 02:50:00,
2013-07-05 22:55:00,80.2,74.6,30.24,NNW,347,3.0,13.0,83,0.00,,,0.00,Wunderground v.1.15,2013-07-06 02:55:00,
2013-07-05 23:00:00,80.2,74.6,30.24,SE,144,3.0,13.0,83,0.00,,,0.00,Wunderground v.1.15,2013-07-06 03:00:00,
2013-07-05 23:05:00,80.2,74.9,30.24,East,79,3.0,13.0,84,0.00,,,0.00,Wunderground v.1.15,2013-07-06 03:05:00,
2013-07-05 23:10:00,80.1,74.8,30.24,NNE,32,3.0,3.0,84,0.00,,,0.00,Wunderground v.1.15,2013-07-06 03:10:00,
2013-07-05 23:15:00,80.1,74.8,30.24,West,267,3.0,13.0,84,0.00,,,0.00,Wunderground v.1.15,2013-07-06 03:15:00,
2013-07-05 23:20:00,80.1,74.8,30.24,South,191,3.0,3.0,84,0.00,,,0.00,Wunderground v.1.15,2013-07-06 03:20:00,
2013-07-05 23:25:00,80.0,74.7,30.24,West,278,2.0,13.0,84,0.00,,,0.00,Wunderground v.1.15,2013-07-06 03:25:00,
2013-07-05 23:30:00,79.9,74.6,30.24,NNE,32,2.0,2.0,84,0.00,,,0.00,Wunderground v.1.15,2013-07-06 03:30:00,
2013-07-05 23:35:00,80.0,75.1,30.24,SW,236,2.0,3.0,85,0.00,,,0.00,Wunderground v.1.15,2013-07-06 03:35:00,
2013-07-05 23:40:00,79.9,75.0,30.24,NE,48,2.0,2.0,85,0.00,,,0.00,Wunderground v.1.15,2013-07-06 03:40:00,
2013-07-05 23:45:00,79.7,74.8,30.24,WSW,255,2.0,3.0,85,0.00,,,0.00,Wunderground v.1.15,2013-07-06 03:45:00,
2013-07-05 23:50:00,79.7,74.8,30.24,WSW,243,2.0,13.0,85,0.00,,,0.00,Wunderground v.1.15,2013-07-06 03:50:00,
2013-07-05 23:55:00,79.7,74.8,30.24,NE,39,3.0,13.0,85,0.00,,,0.00,Wunderground v.1.15,2013-07-06 03:55:00,